| time (UTC) | temp F | wind direction | speed MPH | gust MPH | rain 1hr in | rain 24hr in | rain mn in | humidity % | barometer mb |
| 20260504050535 | 66 | 276 | 1.0 | 6.0 | 0.00 | 0.00 | 0.00 | 31 | 1013.2 |
| 20260504045605 | 66 | 281 | 1.0 | 5.0 | 0.00 | 0.00 | 0.00 | 31 | 1013.2 |
| 20260504044524 | 65 | 280 | 0.0 | 3.0 | 0.00 | 0.00 | 0.00 | 32 | 1013.2 |
| 20260504043553 | 65 | 275 | 0.0 | 4.0 | 0.00 | 0.00 | 0.00 | 31 | 1013.1 |
| 20260504042624 | 65 | 290 | 0.0 | 3.0 | 0.00 | 0.00 | 0.00 | 31 | 1013.1 |
| 20260504041543 | 63 | 276 | 0.0 | 3.0 | 0.00 | 0.00 | 0.00 | 34 | 1013.0 |
| 20260504040613 | 64 | 286 | 1.0 | 4.0 | 0.00 | 0.00 | 0.00 | 34 | 1013.0 |
| 20260504035532 | 63 | 280 | 0.0 | 3.0 | 0.00 | 0.00 | 0.00 | 34 | 1012.9 |
| 20260504034602 | 62 | 282 | 0.0 | 3.0 | 0.00 | 0.00 | 0.00 | 38 | 1012.8 |
| 20260504033542 | 61 | 278 | 0.0 | 2.0 | 0.00 | 0.00 | 0.00 | 41 | 1012.7 |
| 20260504032552 | 64 | 276 | 0.0 | 3.0 | 0.00 | 0.00 | 0.00 | 36 | 1012.6 |
| 20260504031622 | 64 | 281 | 0.0 | 3.0 | 0.00 | 0.00 | 0.00 | 35 | 1012.6 |
| 20260504030542 | 66 | 270 | 0.0 | 3.0 | 0.00 | 0.00 | 0.00 | 32 | 1012.6 |
| 20260504025612 | 67 | 270 | 0.0 | 3.0 | 0.00 | 0.00 | 0.00 | 30 | 1012.7 |
| 20260504024531 | 69 | 273 | 0.0 | 4.0 | 0.00 | 0.00 | 0.00 | 27 | 1012.7 |
| 20260504023622 | 70 | 274 | 0.0 | 5.0 | 0.00 | 0.00 | 0.00 | 25 | 1012.8 |
| 20260504022541 | 71 | 309 | 1.0 | 8.0 | 0.00 | 0.00 | 0.00 | 23 | 1012.8 |
| 20260504021631 | 71 | 288 | 1.0 | 4.0 | 0.00 | 0.00 | 0.00 | 25 | 1012.7 |
| 20260504020621 | 71 | 295 | 0.0 | 4.0 | 0.00 | 0.00 | 0.00 | 23 | 1012.8 |
| 20260504015541 | 72 | 288 | 0.0 | 2.0 | 0.00 | 0.00 | 0.00 | 24 | 1012.7 |
| 20260504014610 | 73 | 297 | 0.0 | 3.0 | 0.00 | 0.00 | 0.00 | 23 | 1012.8 |
| 20260504013530 | 73 | 288 | 1.0 | 6.0 | 0.00 | 0.00 | 0.00 | 22 | 1012.8 |
| 20260504012600 | 73 | 289 | 0.0 | 5.0 | 0.00 | 0.00 | 0.00 | 22 | 1012.8 |
| 20260504011517 | 74 | 294 | 0.0 | 5.0 | 0.00 | 0.00 | 0.00 | 22 | 1012.9 |
| 20260504010547 | 74 | 286 | 1.0 | 6.0 | 0.00 | 0.00 | 0.00 | 22 | 1013.0 |
| 20260504005616 | 74 | 264 | 0.0 | 5.0 | 0.00 | 0.00 | 0.00 | 23 | 1013.0 |
| 20260504004536 | 75 | 297 | 1.0 | 5.0 | 0.00 | 0.00 | 0.00 | 22 | 1013.0 |
| 20260504003607 | 75 | 352 | 1.0 | 6.0 | 0.00 | 0.00 | 0.00 | 23 | 1013.1 |
| 20260504002527 | 75 | 309 | 1.0 | 7.0 | 0.00 | 0.00 | 0.00 | 24 | 1013.2 |
| 20260504001557 | 75 | 309 | 1.0 | 8.0 | 0.00 | 0.00 | 0.00 | 24 | 1013.2 |
| 20260504000515 | 75 | 282 | 1.0 | 6.0 | 0.00 | 0.00 | 0.00 | 24 | 1013.3 |
| 20260503235546 | 75 | 295 | 1.0 | 9.0 | 0.00 | 0.00 | 0.00 | 25 | 1013.4 |
| 20260503234616 | 75 | 300 | 1.0 | 8.0 | 0.00 | 0.00 | 0.00 | 25 | 1013.5 |
| 20260503233556 | 75 | 307 | 1.0 | 7.0 | 0.00 | 0.00 | 0.00 | 25 | 1013.5 |
| 20260503232607 | 75 | 254 | 0.0 | 5.0 | 0.00 | 0.00 | 0.00 | 26 | 1013.6 |
| 20260503231526 | 75 | 300 | 1.0 | 7.0 | 0.00 | 0.00 | 0.00 | 26 | 1013.6 |
| 20260503230556 | 75 | 322 | 1.0 | 8.0 | 0.00 | 0.00 | 0.00 | 25 | 1013.7 |
| 20260503225535 | 76 | 313 | 1.0 | 8.0 | 0.00 | 0.00 | 0.00 | 26 | 1013.8 |
| 20260503224545 | 75 | 306 | 1.0 | 7.0 | 0.00 | 0.00 | 0.00 | 24 | 1013.9 |
| 20260503223616 | 75 | 310 | 1.0 | 7.0 | 0.00 | 0.00 | 0.00 | 24 | 1014.0 |
| 20260503222535 | 75 | 314 | 1.0 | 9.0 | 0.00 | 0.00 | 0.00 | 26 | 1014.1 |
| 20260503221605 | 75 | 312 | 1.0 | 10.0 | 0.00 | 0.00 | 0.00 | 26 | 1014.2 |
| 20260503220525 | 76 | 293 | 0.0 | 4.0 | 0.00 | 0.00 | 0.00 | 26 | 1014.3 |
| 20260503215615 | 75 | 315 | 1.0 | 6.0 | 0.00 | 0.00 | 0.00 | 25 | 1014.3 |
| 20260503214625 | 75 | 305 | 1.0 | 8.0 | 0.00 | 0.00 | 0.00 | 26 | 1014.4 |
| 20260503213545 | 74 | 335 | 1.0 | 7.0 | 0.00 | 0.00 | 0.00 | 27 | 1014.5 |
| 20260503212615 | 75 | 290 | 1.0 | 7.0 | 0.00 | 0.00 | 0.00 | 26 | 1014.6 |
| 20260503211535 | 75 | 310 | 1.0 | 6.0 | 0.00 | 0.00 | 0.00 | 26 | 1014.7 |
| 20260503210605 | 75 | 303 | 0.0 | 3.0 | 0.00 | 0.00 | 0.00 | 28 | 1014.8 |
| 20260503205525 | 74 | 358 | 0.0 | 5.0 | 0.00 | 0.00 | 0.00 | 30 | 1015.0 |
| 20260503204555 | 73 | 23 | 0.0 | 3.0 | 0.00 | 0.00 | 0.00 | 30 | 1015.1 |
| 20260503203625 | 73 | 281 | 0.0 | 5.0 | 0.00 | 0.00 | 0.00 | 30 | 1015.3 |
| 20260503202543 | 74 | 316 | 0.0 | 3.0 | 0.00 | 0.00 | 0.00 | 30 | 1015.4 |
| 20260503201613 | 74 | 292 | 1.0 | 6.0 | 0.00 | 0.00 | 0.00 | 31 | 1015.6 |
| 20260503200533 | 73 | 333 | 0.0 | 4.0 | 0.00 | 0.00 | 0.00 | 30 | 1015.7 |
| 20260503195603 | 73 | 245 | 0.0 | 3.0 | 0.00 | 0.00 | 0.00 | 31 | 1015.8 |
| 20260503194523 | 72 | 345 | 0.0 | 5.0 | 0.00 | 0.00 | 0.00 | 33 | 1016.0 |
| 20260503193613 | 71 | 318 | 1.0 | 5.0 | 0.00 | 0.00 | 0.00 | 32 | 1016.2 |
| 20260503192624 | 71 | 330 | 0.0 | 4.0 | 0.00 | 0.00 | 0.00 | 33 | 1016.3 |
| 20260503191543 | 70 | 33 | 0.0 | 3.0 | 0.00 | 0.00 | 0.00 | 33 | 1016.4 |
| 20260503190613 | 69 | 346 | 0.0 | 3.0 | 0.00 | 0.00 | 0.00 | 35 | 1016.5 |
| 20260503185532 | 68 | 11 | 0.0 | 2.0 | 0.00 | 0.00 | 0.00 | 36 | 1016.7 |
| 20260503184623 | 66 | 185 | 0.0 | 3.0 | 0.00 | 0.00 | 0.00 | 40 | 1016.8 |
| 20260503183523 | 65 | 0 | 0.0 | 1.0 | 0.00 | 0.00 | 0.00 | 41 | 1016.9 |
| 20260503182553 | 64 | 0 | 0.0 | 0.0 | 0.00 | 0.00 | 0.00 | 42 | 1017.0 |
| 20260503181623 | 64 | 0 | 0.0 | 0.0 | 0.00 | 0.00 | 0.00 | 42 | 1017.1 |
| 20260503180542 | 63 | 180 | 0.0 | 3.0 | 0.00 | 0.00 | 0.00 | 44 | 1017.2 |
| 20260503175613 | 61 | 180 | 0.0 | 2.0 | 0.00 | 0.00 | 0.00 | 45 | 1017.4 |
| 20260503174532 | 60 | 180 | 0.0 | 2.0 | 0.00 | 0.00 | 0.00 | 45 | 1017.5 |
| 20260503173602 | 60 | 216 | 0.0 | 2.0 | 0.00 | 0.00 | 0.00 | 46 | 1017.6 |
| 20260503172521 | 59 | 338 | 0.0 | 2.0 | 0.00 | 0.00 | 0.00 | 46 | 1017.8 |
| 20260503171551 | 58 | 22 | 0.0 | 2.0 | 0.00 | 0.00 | 0.00 | 46 | 1018.0 |
| 20260503170621 | 57 | 336 | 0.0 | 3.0 | 0.00 | 0.00 | 0.00 | 49 | 1018.1 |
| 20260503150623 | 49 | 0 | 0.0 | 0.0 | 0.00 | 0.00 | 0.00 | 59 | 1018.6 |
| 20260503130520 | 40 | 0 | 0.0 | 0.0 | 0.00 | 0.00 | 0.00 | 78 | 1018.5 |
| 20260503110529 | 42 | 0 | 0.0 | 0.0 | 0.00 | 0.00 | 0.00 | 74 | 1018.4 |
| 20260503081546 | 47 | 0 | 0.0 | 0.0 | 0.00 | 0.00 | 0.00 | 66 | 1017.9 |
| 20260503080616 | 47 | 0 | 0.0 | 0.0 | 0.00 | 0.00 | 0.00 | 63 | 1017.9 |
| 20260503072615 | 48 | 0 | 0.0 | 0.0 | 0.00 | 0.00 | 0.00 | 66 | 1017.8 |
| 20260503071625 | 48 | 0 | 0.0 | 0.0 | 0.00 | 0.00 | 0.00 | 65 | 1017.8 |
| 20260503070545 | 49 | 0 | 0.0 | 0.0 | 0.00 | 0.00 | 0.00 | 69 | 1017.8 |